Information on these data can be found in provided Readme document
Contact Info: Zachary Fasnacht (zachary.fasnacht@ssaihq.com); Nickolay Krotkov (nickolay.a.krotkov@nasa.gov); Lok Lamsal (lok.lamsal@nasa.gov)

FillValue: -999.
ScaleFactor: 1e15
Units: molecules/cm^2

Date(yyyy-mm-dd),City,Country,LonCenter,LatCenter,BoundingCoordinates,Median,Q1,Q3,Mean,Baseline_Median,Baseline_Q1,Baseline_Q3,Baseline_Mean,NumGoodSamples,NumTotalSamples
2015-01-01,Shanghai,China,121.4667,31.1667,[120.9667 30.6667 121.9667 31.6667],20.226,14.645,26.099,21.082,20.341,14.45,26.129,21.356,150.0,545.0
2015-01-02,Shanghai,China,121.4667,31.1667,[120.9667 30.6667 121.9667 31.6667],21.184,14.763,29.109,22.794,20.419,14.421,27.258,21.91,181.0,553.0
2015-01-03,Shanghai,China,121.4667,31.1667,[120.9667 30.6667 121.9667 31.6667],21.808,15.947,29.978,23.708,22.081,16.168,28.9,23.224,168.0,554.0
2015-01-04,Shanghai,China,121.4667,31.1667,[120.9667 30.6667 121.9667 31.6667],22.045,16.205,30.465,24.292,22.195,16.297,29.216,23.563,193.0,546.0
2015-01-05,Shanghai,China,121.4667,31.1667,[120.9667 30.6667 121.9667 31.6667],22.045,16.205,30.465,24.192,22.437,16.665,28.527,23.516,191.0,554.0
2015-01-06,Shanghai,China,121.4667,31.1667,[120.9667 30.6667 121.9667 31.6667],22.045,16.205,30.465,24.192,22.255,17.096,28.678,23.656,191.0,540.0
2015-01-07,Shanghai,China,121.4667,31.1667,[120.9667 30.6667 121.9667 31.6667],24.625,16.802,32.223,26.273,21.671,15.256,29.916,23.331,158.0,548.0
2015-01-08,Shanghai,China,121.4667,31.1667,[120.9667 30.6667 121.9667 31.6667],24.147,15.947,31.678,25.613,21.837,15.118,29.662,23.288,141.0,542.0
2015-01-09,Shanghai,China,121.4667,31.1667,[120.9667 30.6667 121.9667 31.6667],24.289,15.725,31.796,25.606,21.724,15.256,29.977,23.386,132.0,569.0
2015-01-10,Shanghai,China,121.4667,31.1667,[120.9667 30.6667 121.9667 31.6667],23.097,14.763,31.042,24.596,20.998,14.582,27.258,21.735,104.0,534.0
2015-01-11,Shanghai,China,121.4667,31.1667,[120.9667 30.6667 121.9667 31.6667],23.572,14.763,31.796,25.531,21.187,14.56,27.533,22.056,116.0,532.0
2015-01-12,Shanghai,China,121.4667,31.1667,[120.9667 30.6667 121.9667 31.6667],24.08,14.645,34.572,26.384,21.381,14.923,28.297,22.291,96.0,547.0
2015-01-13,Shanghai,China,121.4667,31.1667,[120.9667 30.6667 121.9667 31.6667],24.203,14.645,33.772,26.443,20.354,13.524,26.529,21.008,99.0,528.0
2015-01-14,Shanghai,China,121.4667,31.1667,[120.9667 30.6667 121.9667 31.6667],24.203,14.645,33.772,26.443,20.261,13.689,26.438,20.955,99.0,531.0
2015-01-15,Shanghai,China,121.4667,31.1667,[120.9667 30.6667 121.9667 31.6667],24.203,14.645,33.772,26.443,20.287,13.996,26.518,21.266,99.0,525.0
2015-01-16,Shanghai,China,121.4667,31.1667,[120.9667 30.6667 121.9667 31.6667],34.572,27.85,41.344,35.317,20.602,15.162,26.399,21.531,71.0,540.0
2015-01-17,Shanghai,China,121.4667,31.1667,[120.9667 30.6667 121.9667 31.6667],30.334,21.334,37.487,30.62,19.859,14.016,26.66,20.84,46.0,534.0
2015-01-18,Shanghai,China,121.4667,31.1667,[120.9667 30.6667 121.9667 31.6667],30.334,21.334,37.487,30.62,18.362,13.578,24.129,19.79,46.0,542.0
2015-01-19,Shanghai,China,121.4667,31.1667,[120.9667 30.6667 121.9667 31.6667],28.028,18.997,39.542,31.398,17.806,13.022,23.673,19.335,21.0,541.0
2015-01-20,Shanghai,China,121.4667,31.1667,[120.9667 30.6667 121.9667 31.6667],28.028,18.997,39.542,31.398,17.356,12.862,22.608,18.885,21.0,530.0
2015-01-21,Shanghai,China,121.4667,31.1667,[120.9667 30.6667 121.9667 31.6667],28.028,18.997,39.542,31.398,16.358,12.377,21.834,18.344,21.0,537.0
2015-01-22,Shanghai,China,121.4667,31.1667,[120.9667 30.6667 121.9667 31.6667],28.028,18.997,39.542,31.398,15.577,10.923,21.391,17.094,21.0,524.0
2015-01-23,Shanghai,China,121.4667,31.1667,[120.9667 30.6667 121.9667 31.6667],28.028,18.997,39.542,31.398,15.654,11.08,21.336,17.155,21.0,533.0
2015-01-24,Shanghai,China,121.4667,31.1667,[120.9667 30.6667 121.9667 31.6667],27.85,22.241,34.278,29.847,15.793,11.573,21.311,17.253,24.0,528.0
2015-01-25,Shanghai,China,121.4667,31.1667,[120.9667 30.6667 121.9667 31.6667],27.85,22.241,34.278,29.847,16.332,11.679,21.537,17.153,24.0,572.0
2015-01-26,Shanghai,China,121.4667,31.1667,[120.9667 30.6667 121.9667 31.6667],22.574,22.241,28.028,25.527,16.081,11.709,21.368,17.993,12.0,556.0
2015-01-27,Shanghai,China,121.4667,31.1667,[120.9667 30.6667 121.9667 31.6667],22.574,22.241,28.028,25.527,15.738,11.401,20.531,17.291,12.0,552.0
2015-01-28,Shanghai,China,121.4667,31.1667,[120.9667 30.6667 121.9667 31.6667],22.409,21.334,30.751,24.71,14.295,10.848,23.251,17.651,9.0,563.0
2015-01-29,Shanghai,China,121.4667,31.1667,[120.9667 30.6667 121.9667 31.6667],18.997,15.67,22.574,20.882,14.283,10.771,22.628,17.464,18.0,544.0
2015-01-30,Shanghai,China,121.4667,31.1667,[120.9667 30.6667 121.9667 31.6667],18.997,15.67,22.574,20.882,14.849,11.282,21.351,17.567,18.0,548.0
2015-01-31,Shanghai,China,121.4667,31.1667,[120.9667 30.6667 121.9667 31.6667],22.961,18.192,26.834,23.09,15.704,12.323,21.494,18.037,53.0,543.0
2015-02-01,Shanghai,China,121.4667,31.1667,[120.9667 30.6667 121.9667 31.6667],22.961,18.163,26.834,23.144,15.964,12.318,19.906,17.317,47.0,559.0
2015-02-02,Shanghai,China,121.4667,31.1667,[120.9667 30.6667 121.9667 31.6667],18.411,12.883,25.759,19.088,15.737,11.733,20.42,17.249,73.0,554.0
2015-02-03,Shanghai,China,121.4667,31.1667,[120.9667 30.6667 121.9667 31.6667],19.261,13.502,25.761,19.637,14.596,10.39,20.593,16.439,104.0,564.0
2015-02-04,Shanghai,China,121.4667,31.1667,[120.9667 30.6667 121.9667 31.6667],19.261,13.502,25.761,19.637,14.664,10.646,20.991,16.691,104.0,563.0
2015-02-05,Shanghai,China,121.4667,31.1667,[120.9667 30.6667 121.9667 31.6667],19.803,14.341,25.975,19.977,15.379,10.965,21.06,16.862,128.0,554.0
2015-02-06,Shanghai,China,121.4667,31.1667,[120.9667 30.6667 121.9667 31.6667],19.803,14.341,25.975,19.977,15.985,11.964,21.079,17.286,128.0,561.0
2015-02-07,Shanghai,China,121.4667,31.1667,[120.9667 30.6667 121.9667 31.6667],18.875,12.716,25.761,19.433,15.349,11.408,21.105,17.086,139.0,543.0
2015-02-08,Shanghai,China,121.4667,31.1667,[120.9667 30.6667 121.9667 31.6667],18.163,12.02,25.761,19.112,15.101,11.085,21.219,16.868,136.0,552.0
2015-02-09,Shanghai,China,121.4667,31.1667,[120.9667 30.6667 121.9667 31.6667],18.163,12.02,25.761,19.112,14.975,11.026,21.114,16.884,136.0,548.0
2015-02-10,Shanghai,China,121.4667,31.1667,[120.9667 30.6667 121.9667 31.6667],18.146,11.534,25.759,18.976,15.017,8.536,21.196,16.288,153.0,574.0
2015-02-11,Shanghai,China,121.4667,31.1667,[120.9667 30.6667 121.9667 31.6667],18.146,11.534,25.759,18.976,14.754,8.775,21.78,16.437,153.0,539.0
2015-02-12,Shanghai,China,121.4667,31.1667,[120.9667 30.6667 121.9667 31.6667],17.259,9.065,24.786,17.645,14.613,7.664,21.958,15.959,179.0,538.0
2015-02-13,Shanghai,China,121.4667,31.1667,[120.9667 30.6667 121.9667 31.6667],17.888,9.065,25.715,17.747,14.746,7.602,22.483,16.114,170.0,550.0
2015-02-14,Shanghai,China,121.4667,31.1667,[120.9667 30.6667 121.9667 31.6667],17.888,9.065,25.715,17.747,14.129,7.532,21.187,15.594,170.0,529.0
2015-02-15,Shanghai,China,121.4667,31.1667,[120.9667 30.6667 121.9667 31.6667],11.779,7.687,21.45,14.857,12.56,7.114,19.913,14.816,135.0,531.0
2015-02-16,Shanghai,China,121.4667,31.1667,[120.9667 30.6667 121.9667 31.6667],11.779,7.687,21.45,14.857,10.95,7.411,20.129,14.728,135.0,525.0
2015-02-17,Shanghai,China,121.4667,31.1667,[120.9667 30.6667 121.9667 31.6667],14.606,8.303,23.608,16.199,12.433,7.536,19.915,15.293,109.0,539.0
2015-02-18,Shanghai,China,121.4667,31.1667,[120.9667 30.6667 121.9667 31.6667],11.779,5.899,22.184,14.089,12.941,9.051,21.451,16.163,78.0,532.0
2015-02-19,Shanghai,China,121.4667,31.1667,[120.9667 30.6667 121.9667 31.6667],11.779,5.899,22.184,14.089,13.449,9.374,21.159,16.208,78.0,542.0
2015-02-20,Shanghai,China,121.4667,31.1667,[120.9667 30.6667 121.9667 31.6667],8.762,4.204,11.779,9.922,12.135,8.986,19.402,15.475,54.0,538.0
2015-02-21,Shanghai,China,121.4667,31.1667,[120.9667 30.6667 121.9667 31.6667],8.762,4.204,11.779,9.922,12.73,9.167,18.155,15.561,54.0,528.0
2015-02-22,Shanghai,China,121.4667,31.1667,[120.9667 30.6667 121.9667 31.6667],5.627,3.64,10.832,8.682,13.26,9.636,19.26,16.02,43.0,538.0
2015-02-23,Shanghai,China,121.4667,31.1667,[120.9667 30.6667 121.9667 31.6667],8.263,4.161,11.976,9.556,13.145,9.632,20.243,16.055,48.0,521.0
2015-02-24,Shanghai,China,121.4667,31.1667,[120.9667 30.6667 121.9667 31.6667],8.263,4.161,11.976,9.556,13.535,9.853,20.454,16.328,48.0,529.0
2015-02-25,Shanghai,China,121.4667,31.1667,[120.9667 30.6667 121.9667 31.6667],5.598,3.64,11.312,7.243,14.011,10.578,20.046,16.093,31.0,521.0
2015-02-26,Shanghai,China,121.4667,31.1667,[120.9667 30.6667 121.9667 31.6667],5.598,3.64,11.312,7.243,14.256,10.693,20.105,16.17,31.0,565.0
2015-02-27,Shanghai,China,121.4667,31.1667,[120.9667 30.6667 121.9667 31.6667],11.976,10.737,15.647,12.69,14.673,11.12,20.681,16.751,5.0,549.0
2015-02-28,Shanghai,China,121.4667,31.1667,[120.9667 30.6667 121.9667 31.6667],11.976,10.737,14.547,11.637,16.099,11.129,21.798,17.992,18.0,547.0
2015-03-01,Shanghai,China,121.4667,31.1667,[120.9667 30.6667 121.9667 31.6667],11.976,10.737,14.547,11.637,16.175,11.104,21.847,17.939,18.0,560.0
2015-03-02,Shanghai,China,121.4667,31.1667,[120.9667 30.6667 121.9667 31.6667],11.527,9.74,13.951,11.33,17.145,11.582,21.913,18.226,22.0,542.0
2015-03-03,Shanghai,China,121.4667,31.1667,[120.9667 30.6667 121.9667 31.6667],11.527,9.74,13.951,11.33,17.182,11.559,21.89,18.148,22.0,545.0
2015-03-04,Shanghai,China,121.4667,31.1667,[120.9667 30.6667 121.9667 31.6667],13.19,10.737,17.231,14.115,17.483,11.575,22.492,18.317,27.0,541.0
2015-03-05,Shanghai,China,121.4667,31.1667,[120.9667 30.6667 121.9667 31.6667],13.19,10.737,17.231,14.115,17.598,11.955,22.852,18.587,27.0,555.0
2015-03-06,Shanghai,China,121.4667,31.1667,[120.9667 30.6667 121.9667 31.6667],17.036,11.527,24.936,19.016,17.525,11.948,22.779,18.593,35.0,549.0
2015-03-07,Shanghai,China,121.4667,31.1667,[120.9667 30.6667 121.9667 31.6667],17.036,11.527,24.936,19.016,17.654,12.198,23.057,18.812,35.0,561.0
2015-03-08,Shanghai,China,121.4667,31.1667,[120.9667 30.6667 121.9667 31.6667],17.036,11.527,24.936,19.016,19.17,13.862,25.577,20.497,35.0,559.0
2015-03-09,Shanghai,China,121.4667,31.1667,[120.9667 30.6667 121.9667 31.6667],17.036,11.527,24.936,19.016,18.7,12.866,24.7,20.024,35.0,548.0
2015-03-10,Shanghai,China,121.4667,31.1667,[120.9667 30.6667 121.9667 31.6667],19.493,13.19,29.408,20.234,18.842,14.131,25.139,20.72,30.0,557.0
2015-03-11,Shanghai,China,121.4667,31.1667,[120.9667 30.6667 121.9667 31.6667],21.201,13.68,29.438,21.055,18.889,14.076,25.912,20.876,32.0,541.0
2015-03-12,Shanghai,China,121.4667,31.1667,[120.9667 30.6667 121.9667 31.6667],21.201,13.68,29.438,21.055,19.1,14.139,26.509,21.106,32.0,550.0
2015-03-13,Shanghai,China,121.4667,31.1667,[120.9667 30.6667 121.9667 31.6667],21.201,13.68,29.438,21.055,18.251,14.087,26.551,20.743,32.0,547.0
2015-03-14,Shanghai,China,121.4667,31.1667,[120.9667 30.6667 121.9667 31.6667],23.49,14.416,31.762,23.242,19.216,14.632,28.102,21.844,49.0,572.0
2015-03-15,Shanghai,China,121.4667,31.1667,[120.9667 30.6667 121.9667 31.6667],24.936,18.187,33.641,25.853,18.668,14.061,27.251,21.352,36.0,536.0
2015-03-16,Shanghai,China,121.4667,31.1667,[120.9667 30.6667 121.9667 31.6667],24.936,18.187,33.641,25.853,19.142,14.371,27.873,21.678,36.0,534.0
2015-03-17,Shanghai,China,121.4667,31.1667,[120.9667 30.6667 121.9667 31.6667],29.408,21.201,33.641,27.816,18.989,13.055,28.058,21.295,32.0,544.0
2015-03-18,Shanghai,China,121.4667,31.1667,[120.9667 30.6667 121.9667 31.6667],20.395,13.64,29.438,21.732,18.453,13.179,28.05,21.308,51.0,522.0
2015-03-19,Shanghai,China,121.4667,31.1667,[120.9667 30.6667 121.9667 31.6667],21.201,10.573,31.721,21.996,19.091,12.607,28.826,21.443,46.0,523.0
2015-03-20,Shanghai,China,121.4667,31.1667,[120.9667 30.6667 121.9667 31.6667],21.201,10.573,31.721,21.996,18.506,13.134,28.224,21.572,46.0,519.0
2015-03-21,Shanghai,China,121.4667,31.1667,[120.9667 30.6667 121.9667 31.6667],17.774,8.959,29.696,19.073,18.318,12.23,26.912,20.701,38.0,535.0
2015-03-22,Shanghai,China,121.4667,31.1667,[120.9667 30.6667 121.9667 31.6667],11.639,7.571,17.774,14.242,17.265,11.554,24.94,19.633,64.0,529.0
2015-03-23,Shanghai,China,121.4667,31.1667,[120.9667 30.6667 121.9667 31.6667],11.639,7.571,17.774,14.242,15.983,11.103,23.38,18.543,64.0,538.0
2015-03-24,Shanghai,China,121.4667,31.1667,[120.9667 30.6667 121.9667 31.6667],11.639,7.571,17.774,14.242,16.522,12.039,23.197,18.511,64.0,535.0
2015-03-25,Shanghai,China,121.4667,31.1667,[120.9667 30.6667 121.9667 31.6667],11.629,7.571,17.774,14.065,16.364,11.305,22.477,18.082,82.0,525.0
2015-03-26,Shanghai,China,121.4667,31.1667,[120.9667 30.6667 121.9667 31.6667],11.261,7.571,16.879,13.458,16.27,11.224,22.234,17.883,82.0,532.0
2015-03-27,Shanghai,China,121.4667,31.1667,[120.9667 30.6667 121.9667 31.6667],11.261,7.571,16.879,13.458,14.388,9.914,21.98,17.02,82.0,518.0
2015-03-28,Shanghai,China,121.4667,31.1667,[120.9667 30.6667 121.9667 31.6667],11.261,7.571,16.879,13.458,14.614,10.035,21.965,17.18,82.0,526.0
2015-03-29,Shanghai,China,121.4667,31.1667,[120.9667 30.6667 121.9667 31.6667],11.063,7.246,15.451,11.555,14.411,10.089,20.8,16.347,65.0,523.0
2015-03-30,Shanghai,China,121.4667,31.1667,[120.9667 30.6667 121.9667 31.6667],11.063,7.246,15.451,11.555,14.092,10.01,20.04,15.689,65.0,566.0
2015-03-31,Shanghai,China,121.4667,31.1667,[120.9667 30.6667 121.9667 31.6667],11.063,7.246,15.451,11.555,14.03,10.101,19.825,15.712,65.0,552.0
2015-04-01,Shanghai,China,121.4667,31.1667,[120.9667 30.6667 121.9667 31.6667],10.573,6.719,15.558,11.64,13.733,10.112,19.31,15.482,88.0,549.0
2015-04-02,Shanghai,China,121.4667,31.1667,[120.9667 30.6667 121.9667 31.6667],11.063,6.961,15.451,11.655,13.962,9.699,18.804,15.239,75.0,560.0
2015-04-03,Shanghai,China,121.4667,31.1667,[120.9667 30.6667 121.9667 31.6667],11.261,7.493,17.795,12.827,13.18,9.278,18.467,14.481,95.0,537.0
2015-04-04,Shanghai,China,121.4667,31.1667,[120.9667 30.6667 121.9667 31.6667],11.261,7.493,17.795,12.827,12.985,9.032,18.284,14.533,95.0,538.0
2015-04-05,Shanghai,China,121.4667,31.1667,[120.9667 30.6667 121.9667 31.6667],9.066,7.178,15.451,11.694,12.067,9.056,17.52,14.289,130.0,532.0
2015-04-06,Shanghai,China,121.4667,31.1667,[120.9667 30.6667 121.9667 31.6667],8.931,7.178,13.908,11.894,12.215,9.102,17.252,14.424,104.0,547.0
2015-04-07,Shanghai,China,121.4667,31.1667,[120.9667 30.6667 121.9667 31.6667],9.104,7.331,18.234,12.852,12.175,9.062,18.104,14.607,113.0,542.0
2015-04-08,Shanghai,China,121.4667,31.1667,[120.9667 30.6667 121.9667 31.6667],9.104,7.357,18.837,12.984,12.202,8.728,19.57,14.951,129.0,553.0
2015-04-09,Shanghai,China,121.4667,31.1667,[120.9667 30.6667 121.9667 31.6667],10.759,7.357,20.512,13.568,12.531,8.688,19.788,15.105,120.0,549.0
2015-04-10,Shanghai,China,121.4667,31.1667,[120.9667 30.6667 121.9667 31.6667],10.4,7.278,17.795,13.114,12.758,8.835,19.152,15.212,144.0,541.0
2015-04-11,Shanghai,China,121.4667,31.1667,[120.9667 30.6667 121.9667 31.6667],10.759,7.293,18.837,13.325,13.517,9.3,19.889,15.66,147.0,549.0
2015-04-12,Shanghai,China,121.4667,31.1667,[120.9667 30.6667 121.9667 31.6667],10.759,7.293,18.837,13.325,13.047,8.961,19.087,15.192,147.0,533.0
2015-04-13,Shanghai,China,121.4667,31.1667,[120.9667 30.6667 121.9667 31.6667],10.759,7.293,18.837,13.325,12.488,8.506,18.345,14.603,147.0,537.0
2015-04-14,Shanghai,China,121.4667,31.1667,[120.9667 30.6667 121.9667 31.6667],10.331,7.178,16.738,12.714,12.344,8.232,18.067,14.454,171.0,533.0
2015-04-15,Shanghai,China,121.4667,31.1667,[120.9667 30.6667 121.9667 31.6667],10.971,7.278,18.722,13.696,11.682,7.924,18.426,14.223,205.0,556.0
2015-04-16,Shanghai,China,121.4667,31.1667,[120.9667 30.6667 121.9667 31.6667],11.077,7.357,17.795,13.826,11.633,7.949,18.031,14.313,182.0,523.0
2015-04-17,Shanghai,China,121.4667,31.1667,[120.9667 30.6667 121.9667 31.6667],11.077,7.357,17.795,13.858,11.746,8.403,17.607,14.111,176.0,489.0
2015-04-18,Shanghai,China,121.4667,31.1667,[120.9667 30.6667 121.9667 31.6667],10.958,7.293,16.874,13.911,11.798,8.361,17.568,14.215,179.0,504.0
2015-04-19,Shanghai,China,121.4667,31.1667,[120.9667 30.6667 121.9667 31.6667],10.331,7.278,15.678,13.353,11.519,8.346,17.114,13.877,198.0,486.0
2015-04-20,Shanghai,China,121.4667,31.1667,[120.9667 30.6667 121.9667 31.6667],12.009,7.8,19.244,14.948,11.856,8.174,17.845,13.792,163.0,488.0
2015-04-21,Shanghai,China,121.4667,31.1667,[120.9667 30.6667 121.9667 31.6667],13.006,9.237,17.701,14.795,12.127,8.505,17.438,13.864,199.0,481.0
2015-04-22,Shanghai,China,121.4667,31.1667,[120.9667 30.6667 121.9667 31.6667],12.785,8.792,17.0,14.321,12.004,8.435,17.07,13.705,190.0,496.0
2015-04-23,Shanghai,China,121.4667,31.1667,[120.9667 30.6667 121.9667 31.6667],11.955,9.05,18.002,14.483,11.527,8.433,16.509,13.345,205.0,491.0
2015-04-24,Shanghai,China,121.4667,31.1667,[120.9667 30.6667 121.9667 31.6667],11.689,7.997,17.0,13.804,11.113,8.194,15.863,13.003,226.0,504.0
2015-04-25,Shanghai,China,121.4667,31.1667,[120.9667 30.6667 121.9667 31.6667],11.917,8.285,17.701,14.154,10.933,8.066,15.583,12.615,200.0,500.0
2015-04-26,Shanghai,China,121.4667,31.1667,[120.9667 30.6667 121.9667 31.6667],11.858,8.285,17.655,13.823,10.892,7.985,15.501,12.483,217.0,490.0
2015-04-27,Shanghai,China,121.4667,31.1667,[120.9667 30.6667 121.9667 31.6667],11.858,8.285,17.143,13.752,11.336,8.053,16.256,12.711,222.0,498.0
2015-04-28,Shanghai,China,121.4667,31.1667,[120.9667 30.6667 121.9667 31.6667],11.529,7.997,16.539,13.368,11.273,8.068,16.126,12.726,251.0,488.0
2015-04-29,Shanghai,China,121.4667,31.1667,[120.9667 30.6667 121.9667 31.6667],11.858,8.34,17.701,13.842,11.25,8.159,16.457,12.761,227.0,496.0
2015-04-30,Shanghai,China,121.4667,31.1667,[120.9667 30.6667 121.9667 31.6667],10.895,7.827,15.289,12.533,11.108,7.986,15.346,12.467,222.0,489.0
2015-05-01,Shanghai,China,121.4667,31.1667,[120.9667 30.6667 121.9667 31.6667],10.895,7.827,15.289,12.533,11.316,8.185,15.437,12.609,222.0,534.0
2015-05-02,Shanghai,China,121.4667,31.1667,[120.9667 30.6667 121.9667 31.6667],10.895,7.827,15.289,12.516,11.663,8.062,16.061,12.884,223.0,556.0
2015-05-03,Shanghai,China,121.4667,31.1667,[120.9667 30.6667 121.9667 31.6667],10.675,7.617,15.009,11.914,11.306,8.096,16.0,12.609,218.0,554.0
2015-05-04,Shanghai,China,121.4667,31.1667,[120.9667 30.6667 121.9667 31.6667],10.895,7.704,15.289,12.167,11.066,8.001,15.836,12.457,199.0,564.0
2015-05-05,Shanghai,China,121.4667,31.1667,[120.9667 30.6667 121.9667 31.6667],10.812,7.454,15.009,11.903,10.832,7.882,15.413,12.281,221.0,547.0
2015-05-06,Shanghai,China,121.4667,31.1667,[120.9667 30.6667 121.9667 31.6667],9.441,6.902,13.993,11.244,10.531,7.654,15.065,12.017,185.0,549.0
2015-05-07,Shanghai,China,121.4667,31.1667,[120.9667 30.6667 121.9667 31.6667],9.441,6.935,13.993,11.291,10.636,7.582,14.709,11.802,188.0,542.0
2015-05-08,Shanghai,China,121.4667,31.1667,[120.9667 30.6667 121.9667 31.6667],8.647,6.674,13.559,9.975,9.926,7.378,14.212,11.232,157.0,556.0
2015-05-09,Shanghai,China,121.4667,31.1667,[120.9667 30.6667 121.9667 31.6667],8.699,6.843,13.559,10.077,9.819,7.285,14.338,11.181,141.0,547.0
2015-05-10,Shanghai,China,121.4667,31.1667,[120.9667 30.6667 121.9667 31.6667],8.699,6.843,13.559,10.067,10.197,7.461,14.62,11.487,142.0,561.0
2015-05-11,Shanghai,China,121.4667,31.1667,[120.9667 30.6667 121.9667 31.6667],8.384,6.712,13.725,9.94,9.919,7.412,14.485,11.399,122.0,560.0
2015-05-12,Shanghai,China,121.4667,31.1667,[120.9667 30.6667 121.9667 31.6667],8.711,6.712,13.977,10.264,9.691,7.348,14.1,11.113,137.0,550.0
2015-05-13,Shanghai,China,121.4667,31.1667,[120.9667 30.6667 121.9667 31.6667],8.562,6.843,13.507,10.064,9.862,7.388,14.01,11.051,124.0,554.0
2015-05-14,Shanghai,China,121.4667,31.1667,[120.9667 30.6667 121.9667 31.6667],8.159,6.843,12.32,9.943,9.406,7.216,13.589,10.871,154.0,542.0
2015-05-15,Shanghai,China,121.4667,31.1667,[120.9667 30.6667 121.9667 31.6667],8.159,6.924,12.139,9.722,9.549,7.213,13.559,10.822,125.0,552.0
2015-05-16,Shanghai,China,121.4667,31.1667,[120.9667 30.6667 121.9667 31.6667],8.159,6.924,12.139,9.722,9.55,7.137,13.2,10.723,125.0,545.0
2015-05-17,Shanghai,China,121.4667,31.1667,[120.9667 30.6667 121.9667 31.6667],8.092,6.843,11.888,9.662,8.991,7.089,12.663,10.197,136.0,568.0
2015-05-18,Shanghai,China,121.4667,31.1667,[120.9667 30.6667 121.9667 31.6667],8.314,7.009,12.139,9.857,8.868,6.924,12.536,9.999,118.0,534.0
2015-05-19,Shanghai,China,121.4667,31.1667,[120.9667 30.6667 121.9667 31.6667],8.159,7.009,11.888,9.733,9.285,6.984,12.77,10.232,125.0,534.0
2015-05-20,Shanghai,China,121.4667,31.1667,[120.9667 30.6667 121.9667 31.6667],8.159,6.924,12.32,9.932,9.325,7.065,12.832,10.331,103.0,541.0
2015-05-21,Shanghai,China,121.4667,31.1667,[120.9667 30.6667 121.9667 31.6667],8.159,6.924,12.32,9.932,9.531,7.051,12.957,10.321,103.0,524.0
2015-05-22,Shanghai,China,121.4667,31.1667,[120.9667 30.6667 121.9667 31.6667],8.092,6.924,11.888,9.769,9.546,7.096,13.037,10.514,100.0,527.0
2015-05-23,Shanghai,China,121.4667,31.1667,[120.9667 30.6667 121.9667 31.6667],8.092,6.924,11.888,9.769,9.781,7.256,13.329,10.797,100.0,523.0
2015-05-24,Shanghai,China,121.4667,31.1667,[120.9667 30.6667 121.9667 31.6667],8.092,6.744,12.23,9.929,9.886,7.193,13.531,10.881,86.0,540.0
2015-05-25,Shanghai,China,121.4667,31.1667,[120.9667 30.6667 121.9667 31.6667],8.009,5.856,9.192,8.957,9.117,6.688,12.24,10.286,111.0,531.0
2015-05-26,Shanghai,China,121.4667,31.1667,[120.9667 30.6667 121.9667 31.6667],8.009,5.856,9.192,8.957,9.125,6.621,12.153,10.177,111.0,541.0
2015-05-27,Shanghai,China,121.4667,31.1667,[120.9667 30.6667 121.9667 31.6667],7.717,5.856,8.803,8.275,9.478,6.651,12.668,10.314,93.0,540.0
2015-05-28,Shanghai,China,121.4667,31.1667,[120.9667 30.6667 121.9667 31.6667],7.479,5.73,8.759,8.131,9.23,6.631,12.385,10.085,78.0,530.0
2015-05-29,Shanghai,China,121.4667,31.1667,[120.9667 30.6667 121.9667 31.6667],7.468,5.73,8.803,8.478,9.47,6.562,12.885,10.327,62.0,537.0
2015-05-30,Shanghai,China,121.4667,31.1667,[120.9667 30.6667 121.9667 31.6667],7.878,5.856,9.856,8.738,9.237,6.585,12.604,10.143,91.0,522.0
2015-05-31,Shanghai,China,121.4667,31.1667,[120.9667 30.6667 121.9667 31.6667],7.878,5.856,9.856,8.738,9.343,6.617,12.442,10.146,91.0,531.0
2015-06-01,Shanghai,China,121.4667,31.1667,[120.9667 30.6667 121.9667 31.6667],8.003,6.091,9.856,8.801,9.469,6.696,12.347,10.34,79.0,525.0
2015-06-02,Shanghai,China,121.4667,31.1667,[120.9667 30.6667 121.9667 31.6667],8.003,6.091,9.856,8.753,9.558,6.735,12.431,10.504,81.0,570.0
2015-06-03,Shanghai,China,121.4667,31.1667,[120.9667 30.6667 121.9667 31.6667],8.145,6.308,10.086,8.85,9.171,6.642,12.265,10.286,74.0,554.0
2015-06-04,Shanghai,China,121.4667,31.1667,[120.9667 30.6667 121.9667 31.6667],8.145,6.308,10.086,8.85,9.271,6.568,12.587,10.267,74.0,555.0
2015-06-05,Shanghai,China,121.4667,31.1667,[120.9667 30.6667 121.9667 31.6667],8.65,6.614,10.9,9.517,9.222,6.732,12.452,10.433,98.0,567.0
2015-06-06,Shanghai,China,121.4667,31.1667,[120.9667 30.6667 121.9667 31.6667],8.65,6.614,10.9,9.517,9.148,6.746,12.346,10.159,98.0,548.0
2015-06-07,Shanghai,China,121.4667,31.1667,[120.9667 30.6667 121.9667 31.6667],8.65,6.614,10.9,9.517,9.093,6.925,12.66,10.315,98.0,550.0
2015-06-08,Shanghai,China,121.4667,31.1667,[120.9667 30.6667 121.9667 31.6667],8.65,6.614,10.9,9.517,9.192,6.934,13.02,10.486,98.0,544.0
2015-06-09,Shanghai,China,121.4667,31.1667,[120.9667 30.6667 121.9667 31.6667],10.086,7.65,13.174,11.088,9.318,6.985,12.82,10.522,72.0,561.0
2015-06-10,Shanghai,China,121.4667,31.1667,[120.9667 30.6667 121.9667 31.6667],10.086,7.65,13.174,11.088,9.291,6.978,13.087,10.557,72.0,554.0
2015-06-11,Shanghai,China,121.4667,31.1667,[120.9667 30.6667 121.9667 31.6667],10.222,7.663,13.174,11.24,9.722,7.07,13.361,10.715,70.0,563.0
2015-06-12,Shanghai,China,121.4667,31.1667,[120.9667 30.6667 121.9667 31.6667],10.086,7.407,13.174,10.951,10.045,7.428,13.938,11.159,87.0,561.0